timestamp,surface_pressure_avg,surface_temp_avg,battery_voltage,lat,long
2017-10-17 00:00:00+00:00,308.343,11.7,12.89,47.84626,-54.09684
2017-10-17 00:10:00+00:00,309.568,11.7,12.81,47.84626,-54.09684
2017-10-17 00:20:00+00:00,291.3114,11.7,12.89,47.84626,-54.09684
2017-10-17 00:30:00+00:00,273.1131,11.7,12.89,47.84626,-54.09684
2017-10-17 00:40:00+00:00,274.6364,11.7,12.89,47.84626,-54.09684
2017-10-17 00:50:00+00:00,272.3814,11.7,12.89,47.84626,-54.09684
2017-10-17 01:00:00+00:00,254.8065,11.7,12.89,47.84626,-54.09684
2017-10-17 01:10:00+00:00,249.2598,11.7,12.81,47.84626,-54.09684
2017-10-17 01:20:00+00:00,256.0447,11.7,12.89,47.84626,-54.09684
2017-10-17 01:30:00+00:00,242.2864,11.69,12.89,47.84626,-54.09684
2017-10-17 01:40:00+00:00,224.4331,11.69,12.89,47.84626,-54.09684
2017-10-17 01:50:00+00:00,228.9398,11.69,12.89,47.84626,-54.09684
2017-10-17 02:00:00+00:00,224.0598,11.69,12.81,47.84626,-54.09684
2017-10-17 02:10:00+00:00,209.4531,11.64,12.81,47.84626,-54.09684
2017-10-17 02:20:00+00:00,207.4548,11.6,12.89,47.84626,-54.09684
2017-10-17 02:30:00+00:00,213.4931,11.61,12.89,47.84626,-54.09684
2017-10-17 02:40:00+00:00,213.5664,11.6,12.89,47.84626,-54.09684
2017-10-17 02:50:00+00:00,207.3148,11.6,12.89,47.84626,-54.09684
2017-10-17 03:00:00+00:00,211.9164,11.6,12.81,47.84626,-54.09684
2017-10-17 03:10:00+00:00,218.9998,11.6,12.81,47.84626,-54.09684
2017-10-17 03:20:00+00:00,214.9481,11.59,12.81,47.84626,-54.09684
2017-10-17 03:30:00+00:00,215.1031,11.5,12.81,47.84626,-54.09684
2017-10-17 03:40:00+00:00,223.6148,11.5,12.89,47.84626,-54.09684
2017-10-17 03:50:00+00:00,222.4514,11.5,12.89,47.84626,-54.09684
2017-10-17 04:00:00+00:00,215.5481,11.5,12.81,47.84626,-54.09684
2017-10-17 04:10:00+00:00,219.6198,11.5,12.73,47.84626,-54.09684
2017-10-17 04:20:00+00:00,226.1681,11.5,12.81,47.84626,-54.09684
2017-10-17 04:30:00+00:00,225.3347,11.5,12.81,47.84626,-54.09684
2017-10-17 04:40:00+00:00,228.1481,11.5,12.89,47.84626,-54.09684
2017-10-17 04:50:00+00:00,239.9581,11.5,12.89,47.84626,-54.09684
2017-10-17 05:00:00+00:00,243.0231,11.5,12.81,47.84626,-54.09684
2017-10-17 05:10:00+00:00,249.3347,11.5,12.73,47.84626,-54.09684
2017-10-17 05:20:00+00:00,253.2498,11.5,12.81,47.84626,-54.09684
2017-10-17 05:30:00+00:00,256.8914,11.5,12.81,47.84626,-54.09684
2017-10-17 05:40:00+00:00,257.8265,11.5,12.89,47.84626,-54.09684
2017-10-17 05:50:00+00:00,266.9181,11.5,12.89,47.84626,-54.09684
2017-10-17 06:00:00+00:00,271.0797,11.5,12.81,47.84626,-54.09684
2017-10-17 06:10:00+00:00,267.9014,11.49,12.73,47.84626,-54.09684
2017-10-17 06:20:00+00:00,269.438,11.49,12.81,47.84626,-54.09684
2017-10-17 06:30:00+00:00,283.1964,11.4,12.81,47.84626,-54.09684
2017-10-17 06:40:00+00:00,288.033,11.4,12.81,47.84626,-54.09684
2017-10-17 06:50:00+00:00,292.9413,11.4,12.89,47.84626,-54.09684
2017-10-17 07:00:00+00:00,299.8864,11.4,12.81,47.84626,-54.09684
2017-10-17 07:10:00+00:00,309.413,11.4,12.73,47.84626,-54.09684
2017-10-17 07:20:00+00:00,310.1414,11.4,12.81,47.84626,-54.09684
2017-10-17 07:30:00+00:00,314.5563,11.4,12.81,47.84626,-54.09684
2017-10-17 07:40:00+00:00,324.8397,11.4,12.81,47.84626,-54.09684
2017-10-17 07:50:00+00:00,336.263,11.38,12.89,47.84626,-54.09684
2017-10-17 08:00:00+00:00,331.7029,11.39,12.81,47.84626,-54.09684
2017-10-17 08:10:00+00:00,339.5879,11.4,12.73,47.84626,-54.09684
2017-10-17 08:20:00+00:00,358.633,11.31,12.81,47.84626,-54.09684
2017-10-17 08:30:00+00:00,353.8163,11.36,12.81,47.84626,-54.09684
2017-10-17 08:40:00+00:00,344.4246,11.35,12.81,47.84626,-54.09684
2017-10-17 08:50:00+00:00,356.4046,11.3,12.81,47.84626,-54.09684
2017-10-17 09:00:00+00:00,370.153,11.3,12.81,47.84626,-54.09684
2017-10-17 09:10:00+00:00,365.278,11.3,12.73,47.84626,-54.09684
2017-10-17 09:20:00+00:00,366.738,11.31,12.81,47.84626,-54.09684
2017-10-17 09:30:00+00:00,382.4146,11.3,12.81,47.84626,-54.09684
2017-10-17 09:40:00+00:00,379.0062,11.3,12.81,47.84626,-54.09684
2017-10-17 09:50:00+00:00,372.9862,11.3,12.81,47.84626,-54.09684
2017-10-17 10:00:00+00:00,377.9213,11.3,12.81,47.84626,-54.09684
2017-10-17 10:10:00+00:00,376.4263,11.3,12.73,47.84626,-54.09684
2017-10-17 10:20:00+00:00,368.2296,11.3,12.81,47.84626,-54.09684
2017-10-17 10:30:00+00:00,368.5597,11.3,12.81,47.84626,-54.09684
2017-10-17 10:40:00+00:00,374.4996,11.3,12.81,47.84626,-54.09684
2017-10-17 10:50:00+00:00,372.5129,11.3,12.81,47.84626,-54.09684
2017-10-17 11:00:00+00:00,372.8196,11.3,12.81,47.84626,-54.09684
2017-10-17 11:10:00+00:00,366.4547,11.3,12.73,47.84626,-54.09684
2017-10-17 11:20:00+00:00,360.4395,11.3,12.81,47.84626,-54.09684
2017-10-17 11:30:00+00:00,355.0146,11.3,12.81,47.84626,-54.09684
2017-10-17 11:40:00+00:00,347.8663,11.3,12.81,47.84626,-54.09684
2017-10-17 11:50:00+00:00,337.5713,11.3,12.89,47.84626,-54.09684
2017-10-17 12:00:00+00:00,335.623,11.3,12.81,47.84626,-54.09684
2017-10-17 12:10:00+00:00,325.6097,11.3,12.73,47.84626,-54.09684
2017-10-17 12:20:00+00:00,314.8014,11.3,12.81,47.84626,-54.09684
2017-10-17 12:30:00+00:00,298.5646,11.3,12.81,47.84626,-54.09684
2017-10-17 12:40:00+00:00,295.9147,11.29,12.89,47.84626,-54.09684
2017-10-17 12:50:00+00:00,297.598,11.27,12.89,47.84626,-54.09684
2017-10-17 13:00:00+00:00,289.563,11.28,12.81,47.84626,-54.09684
2017-10-17 13:10:00+00:00,270.3698,11.21,12.73,47.84626,-54.09684
2017-10-17 13:20:00+00:00,261.6147,11.21,12.81,47.84626,-54.09684
2017-10-17 13:30:00+00:00,262.0031,11.21,12.89,47.84626,-54.09684
2017-10-17 13:40:00+00:00,252.2081,11.24,12.89,47.84626,-54.09684
2017-10-17 13:50:00+00:00,243.6448,11.23,12.89,47.84626,-54.09684
2017-10-17 14:00:00+00:00,239.7615,11.23,12.81,47.84626,-54.09684
2017-10-17 14:10:00+00:00,234.5414,11.24,12.73,47.84626,-54.09684
2017-10-17 14:20:00+00:00,226.8247,11.2,12.81,47.84626,-54.09684
2017-10-17 14:30:00+00:00,216.2682,11.21,12.89,47.84626,-54.09684
2017-10-17 14:40:00+00:00,213.7781,11.22,12.89,47.84626,-54.09684
2017-10-17 14:50:00+00:00,219.2081,11.21,12.97,47.84626,-54.09684
2017-10-17 15:00:00+00:00,208.3298,11.21,12.89,47.84626,-54.09684
2017-10-17 15:10:00+00:00,198.8065,11.2,12.81,47.84626,-54.09684
2017-10-17 15:20:00+00:00,212.0914,11.2,12.89,47.84626,-54.09684
2017-10-17 15:30:00+00:00,216.8897,11.2,12.89,47.84626,-54.09684
2017-10-17 15:40:00+00:00,205.1314,11.2,12.89,47.84626,-54.09684
2017-10-17 15:50:00+00:00,199.2082,11.2,12.97,47.84626,-54.09684
2017-10-17 16:00:00+00:00,211.5847,11.2,12.97,47.84626,-54.09684
2017-10-17 16:10:00+00:00,214.0148,11.2,12.89,47.84626,-54.09684
2017-10-17 16:20:00+00:00,207.0848,11.2,12.97,47.84626,-54.09684
2017-10-17 16:30:00+00:00,211.2398,11.19,12.97,47.84626,-54.09684
2017-10-17 16:40:00+00:00,221.1614,11.18,12.97,47.84626,-54.09684
2017-10-17 16:50:00+00:00,216.2298,11.19,12.97,47.84626,-54.09684
2017-10-17 17:00:00+00:00,209.8314,11.18,12.97,47.84626,-54.09684
2017-10-17 17:10:00+00:00,218.7698,11.15,12.81,47.84626,-54.09684
2017-10-17 17:20:00+00:00,231.5564,11.15,12.97,47.84626,-54.09684
2017-10-17 17:30:00+00:00,228.3714,11.13,13.05,47.84626,-54.09684
2017-10-17 17:40:00+00:00,222.2397,11.14,13.05,47.84626,-54.09684
2017-10-17 17:50:00+00:00,233.4697,11.13,13.05,47.84626,-54.09684
2017-10-17 18:00:00+00:00,239.2914,11.14,13.05,47.84626,-54.09684
2017-10-17 18:10:00+00:00,235.9164,11.17,12.97,47.84626,-54.09684
2017-10-17 18:20:00+00:00,240.3015,11.16,13.05,47.84626,-54.09684
2017-10-17 18:30:00+00:00,247.3797,11.17,13.05,47.84626,-54.09684
2017-10-17 18:40:00+00:00,251.4381,11.18,13.05,47.84626,-54.09684
2017-10-17 18:50:00+00:00,249.4348,11.18,13.05,47.84626,-54.09684
2017-10-17 19:00:00+00:00,253.7064,11.18,12.97,47.84626,-54.09684
2017-10-17 19:10:00+00:00,264.7114,11.11,12.89,47.84626,-54.09684
2017-10-17 19:20:00+00:00,268.3897,11.1,12.97,47.84626,-54.09684
2017-10-17 19:30:00+00:00,272.5898,11.14,12.97,47.84626,-54.09684
2017-10-17 19:40:00+00:00,282.2314,11.1,12.97,47.84626,-54.09684
2017-10-17 19:50:00+00:00,295.4397,11.11,12.89,47.84626,-54.09684
2017-10-17 20:00:00+00:00,299.1131,11.14,12.89,47.84626,-54.09684
2017-10-17 20:10:00+00:00,307.8914,11.12,12.73,47.84626,-54.09684
2017-10-17 20:20:00+00:00,318.428,11.1,12.81,47.84626,-54.09684
2017-10-17 20:30:00+00:00,324.9163,11.1,12.81,47.84626,-54.09684
2017-10-17 20:40:00+00:00,328.1697,11.1,12.81,47.84626,-54.09684
2017-10-17 20:50:00+00:00,336.5764,11.1,12.89,47.84626,-54.09684
2017-10-17 21:00:00+00:00,343.2329,11.06,12.81,47.84626,-54.09684
2017-10-17 21:10:00+00:00,343.1812,11.1,12.73,47.84626,-54.09684
2017-10-17 21:20:00+00:00,351.0363,11.1,12.81,47.84626,-54.09684
2017-10-17 21:30:00+00:00,358.2646,11.09,12.81,47.84626,-54.09684
2017-10-17 21:40:00+00:00,356.4329,11.1,12.81,47.84626,-54.09684
2017-10-17 21:50:00+00:00,359.3912,11.1,12.81,47.84626,-54.09684
2017-10-17 22:00:00+00:00,368.278,11.1,12.81,47.84626,-54.09684
2017-10-17 22:10:00+00:00,374.8347,11.14,12.73,47.84626,-54.09684
2017-10-17 22:20:00+00:00,369.6129,11.38,12.81,47.84626,-54.09684
2017-10-17 22:30:00+00:00,369.3445,11.3,12.81,47.84626,-54.09684
2017-10-17 22:40:00+00:00,371.1346,11.2,12.81,47.84626,-54.09684
2017-10-17 22:50:00+00:00,363.1595,11.43,12.81,47.84626,-54.09684
2017-10-17 23:00:00+00:00,359.4163,11.29,12.81,47.84626,-54.09684
2017-10-17 23:10:00+00:00,359.8546,11.31,12.73,47.84626,-54.09684
2017-10-17 23:20:00+00:00,360.3096,11.39,12.81,47.84626,-54.09684
2017-10-17 23:30:00+00:00,350.298,11.4,12.81,47.84626,-54.09684
2017-10-17 23:40:00+00:00,346.5613,11.44,12.81,47.84626,-54.09684
2017-10-17 23:50:00+00:00,346.4963,11.49,12.81,47.84626,-54.09684
